| time (UTC) | temp F | wind direction | speed MPH | gust MPH | rain 1hr in | rain 24hr in | rain mn in | humidity % | barometer mb |
| 20260510173933 | 81 | 125 | 3.0 | 8.0 | 0.00 | 0.00 | 0.00 | 74 | 1013.5 |
| 20260510173151 | 82 | 132 | 3.0 | 8.0 | 0.00 | 0.00 | 0.00 | 73 | 1013.5 |
| 20260510172933 | 82 | 257 | 3.0 | 8.0 | 0.00 | 0.00 | 0.00 | 75 | 1013.5 |
| 20260510172150 | 82 | 46 | 3.0 | 7.0 | 0.00 | 0.00 | 0.00 | 73 | 1013.6 |
| 20260510171650 | 82 | 120 | 3.0 | 8.0 | 0.00 | 0.00 | 0.00 | 76 | 1013.7 |
| 20260510171438 | 82 | 95 | 2.0 | 8.0 | 0.00 | 0.00 | 0.00 | 74 | 1013.8 |
| 20260510170649 | 81 | 358 | 3.0 | 8.0 | 0.00 | 0.00 | 0.00 | 75 | 1013.9 |
| 20260510170151 | 81 | 150 | 3.0 | 9.0 | 0.00 | 0.00 | 0.00 | 76 | 1014.0 |
| 20260510165651 | 81 | 244 | 3.0 | 9.0 | 0.00 | 0.00 | 0.00 | 76 | 1014.0 |
| 20260510165151 | 81 | 153 | 3.0 | 8.0 | 0.00 | 0.00 | 0.00 | 76 | 1014.0 |
| 20260510164650 | 81 | 145 | 3.0 | 8.0 | 0.00 | 0.00 | 0.00 | 77 | 1014.0 |
| 20260510164151 | 81 | 293 | 3.0 | 8.0 | 0.00 | 0.00 | 0.00 | 76 | 1014.0 |
| 20260510163647 | 80 | 179 | 2.0 | 7.0 | 0.00 | 0.00 | 0.00 | 78 | 1014.1 |
| 20260510163148 | 80 | 253 | 2.0 | 7.0 | 0.00 | 0.00 | 0.00 | 79 | 1014.2 |
| 20260510162644 | 80 | 359 | 2.0 | 5.0 | 0.00 | 0.00 | 0.00 | 78 | 1014.1 |
| 20260510162145 | 80 | 81 | 2.0 | 5.0 | 0.00 | 0.00 | 0.00 | 77 | 1014.1 |
| 20260510161645 | 80 | 114 | 2.0 | 7.0 | 0.00 | 0.00 | 0.00 | 79 | 1014.1 |
| 20260510161143 | 80 | 125 | 2.0 | 7.0 | 0.00 | 0.00 | 0.00 | 79 | 1014.1 |
| 20260510160643 | 80 | 135 | 2.0 | 7.0 | 0.00 | 0.00 | 0.00 | 78 | 1014.2 |
| 20260510160143 | 79 | 276 | 2.0 | 6.0 | 0.00 | 0.00 | 0.00 | 81 | 1014.2 |
| 20260510155638 | 79 | 258 | 2.0 | 6.0 | 0.00 | 0.00 | 0.00 | 80 | 1014.2 |
| 20260510155139 | 78 | 61 | 2.0 | 6.0 | 0.00 | 0.00 | 0.00 | 80 | 1014.2 |
| 20260510154639 | 78 | 88 | 2.0 | 7.0 | 0.00 | 0.00 | 0.00 | 81 | 1014.1 |
| 20260510154139 | 78 | 155 | 2.0 | 7.0 | 0.00 | 0.00 | 0.00 | 81 | 1014.0 |
| 20260510153922 | 78 | 80 | 2.0 | 6.0 | 0.00 | 0.00 | 0.00 | 82 | 1014.0 |
| 20260510153139 | 78 | 310 | 2.0 | 6.0 | 0.00 | 0.00 | 0.00 | 81 | 1014.0 |
| 20260510152925 | 77 | 184 | 2.0 | 6.0 | 0.00 | 0.00 | 0.00 | 83 | 1014.0 |
| 20260510152139 | 77 | 146 | 2.0 | 8.0 | 0.00 | 0.00 | 0.00 | 83 | 1013.9 |
| 20260510151926 | 77 | 46 | 3.0 | 8.0 | 0.00 | 0.00 | 0.00 | 83 | 1013.9 |
| 20260510151137 | 77 | 355 | 2.0 | 6.0 | 0.00 | 0.00 | 0.00 | 84 | 1013.9 |
| 20260510150636 | 77 | 138 | 2.0 | 7.0 | 0.00 | 0.00 | 0.00 | 84 | 1013.9 |
| 20260510150138 | 77 | 17 | 2.0 | 8.0 | 0.00 | 0.00 | 0.00 | 82 | 1013.8 |
| 20260510145634 | 77 | 68 | 2.0 | 8.0 | 0.00 | 0.00 | 0.00 | 84 | 1013.8 |
| 20260510145135 | 76 | 136 | 2.0 | 7.0 | 0.00 | 0.00 | 0.00 | 84 | 1013.9 |
| 20260510144918 | 76 | 99 | 2.0 | 7.0 | 0.00 | 0.00 | 0.00 | 84 | 1013.9 |
| 20260510144134 | 76 | 104 | 2.0 | 6.0 | 0.00 | 0.00 | 0.00 | 84 | 1013.9 |
| 20260510143635 | 77 | 342 | 2.0 | 6.0 | 0.00 | 0.00 | 0.00 | 83 | 1013.8 |
| 20260510143135 | 77 | 56 | 2.0 | 5.0 | 0.00 | 0.00 | 0.00 | 82 | 1013.7 |
| 20260510142635 | 77 | 193 | 2.0 | 5.0 | 0.00 | 0.00 | 0.00 | 82 | 1013.6 |
| 20260510142133 | 76 | 78 | 2.0 | 4.0 | 0.00 | 0.00 | 0.00 | 83 | 1013.6 |
| 20260510141634 | 76 | 315 | 2.0 | 4.0 | 0.00 | 0.00 | 0.00 | 82 | 1013.6 |
| 20260510141423 | 77 | 7 | 2.0 | 4.0 | 0.00 | 0.00 | 0.00 | 82 | 1013.5 |
| 20260510140635 | 76 | 260 | 1.0 | 5.0 | 0.00 | 0.00 | 0.00 | 82 | 1013.4 |
| 20260510140132 | 76 | 276 | 2.0 | 5.0 | 0.00 | 0.00 | 0.00 | 83 | 1013.3 |
| 20260510135629 | 75 | 311 | 2.0 | 4.0 | 0.00 | 0.00 | 0.00 | 84 | 1013.2 |
| 20260510135128 | 75 | 93 | 2.0 | 5.0 | 0.00 | 0.00 | 0.00 | 84 | 1013.2 |
| 20260510134915 | 74 | 71 | 2.0 | 6.0 | 0.00 | 0.00 | 0.00 | 86 | 1013.2 |
| 20260510134129 | 74 | 284 | 2.0 | 6.0 | 0.00 | 0.00 | 0.00 | 86 | 1013.1 |
| 20260510133916 | 74 | 106 | 2.0 | 5.0 | 0.00 | 0.00 | 0.00 | 85 | 1013.1 |
| 20260510133129 | 74 | 25 | 2.0 | 5.0 | 0.00 | 0.00 | 0.00 | 85 | 1013.0 |
| 20260510132630 | 74 | 316 | 1.0 | 4.0 | 0.00 | 0.00 | 0.00 | 85 | 1012.9 |
| 20260510132129 | 74 | 29 | 1.0 | 6.0 | 0.00 | 0.00 | 0.00 | 85 | 1012.9 |
| 20260510131913 | 74 | 37 | 1.0 | 6.0 | 0.00 | 0.00 | 0.00 | 85 | 1012.8 |
| 20260510131130 | 74 | 0 | 1.0 | 3.0 | 0.00 | 0.00 | 0.00 | 85 | 1012.7 |
| 20260510130630 | 73 | 185 | 2.0 | 3.0 | 0.00 | 0.00 | 0.00 | 86 | 1012.5 |
| 20260510130129 | 73 | 148 | 2.0 | 4.0 | 0.00 | 0.00 | 0.00 | 87 | 1012.4 |
| 20260510125633 | 73 | 245 | 2.0 | 4.0 | 0.00 | 0.00 | 0.00 | 88 | 1012.3 |
| 20260510125130 | 72 | 223 | 1.0 | 3.0 | 0.00 | 0.00 | 0.00 | 88 | 1012.3 |
| 20260510124630 | 72 | 233 | 1.0 | 4.0 | 0.00 | 0.00 | 0.00 | 89 | 1012.3 |
| 20260510124130 | 71 | 97 | 1.0 | 4.0 | 0.00 | 0.00 | 0.00 | 90 | 1012.2 |
| 20260510123629 | 71 | 176 | 1.0 | 3.0 | 0.00 | 0.00 | 0.00 | 90 | 1012.2 |
| 20260510123122 | 70 | 278 | 1.0 | 3.0 | 0.00 | 0.00 | 0.00 | 91 | 1012.0 |
| 20260510122623 | 70 | 60 | 1.0 | 2.0 | 0.00 | 0.00 | 0.00 | 92 | 1011.9 |
| 20260510122123 | 70 | 177 | 1.0 | 2.0 | 0.00 | 0.00 | 0.00 | 92 | 1011.8 |
| 20260510121610 | 69 | 133 | 1.0 | 2.0 | 0.00 | 0.00 | 0.00 | 92 | 1011.7 |
| 20260510121110 | 69 | 216 | 1.0 | 3.0 | 0.00 | 0.00 | 0.00 | 92 | 1011.5 |
| 20260510120610 | 69 | 124 | 1.0 | 3.0 | 0.00 | 0.00 | 0.00 | 92 | 1011.4 |
| 20260510120110 | 69 | 56 | 1.0 | 2.0 | 0.00 | 0.00 | 0.00 | 91 | 1011.3 |
| 20260510115834 | 69 | 185 | 1.0 | 2.0 | 0.00 | 0.00 | 0.00 | 91 | 1011.3 |
| 20260510115103 | 69 | 130 | 1.0 | 2.0 | 0.00 | 0.00 | 0.00 | 91 | 1011.3 |
| 20260510114602 | 69 | 257 | 1.0 | 3.0 | 0.00 | 0.00 | 0.00 | 90 | 1011.3 |
| 20260510114331 | 69 | 216 | 1.0 | 3.0 | 0.00 | 0.00 | 0.00 | 90 | 1011.3 |
| 20260510113601 | 69 | 243 | 1.0 | 2.0 | 0.00 | 0.00 | 0.00 | 90 | 1011.2 |
| 20260510113101 | 70 | 267 | 1.0 | 2.0 | 0.00 | 0.00 | 0.00 | 89 | 1011.2 |
| 20260510112602 | 70 | 263 | 1.0 | 2.0 | 0.00 | 0.00 | 0.00 | 89 | 1011.1 |
| 20260510112102 | 70 | 263 | 2.0 | 2.0 | 0.00 | 0.00 | 0.00 | 89 | 1011.1 |
| 20260510111602 | 70 | 231 | 2.0 | 4.0 | 0.00 | 0.00 | 0.00 | 89 | 1011.1 |
| 20260510111103 | 70 | 222 | 2.0 | 4.0 | 0.00 | 0.00 | 0.00 | 88 | 1011.0 |
| 20260510110833 | 70 | 216 | 2.0 | 4.0 | 0.00 | 0.00 | 0.00 | 89 | 1010.9 |
| 20260510105601 | 70 | 273 | 2.0 | 4.0 | 0.00 | 0.00 | 0.00 | 88 | 1011.0 |
| 20260510105103 | 70 | 228 | 2.0 | 4.0 | 0.00 | 0.00 | 0.00 | 88 | 1010.9 |
| 20260510104603 | 70 | 251 | 2.0 | 4.0 | 0.00 | 0.00 | 0.00 | 88 | 1010.8 |
| 20260510104102 | 71 | 298 | 2.0 | 5.0 | 0.00 | 0.00 | 0.00 | 88 | 1010.8 |
| 20260510103602 | 71 | 220 | 2.0 | 5.0 | 0.00 | 0.00 | 0.00 | 87 | 1010.7 |
| 20260510103101 | 71 | 347 | 2.0 | 5.0 | 0.00 | 0.02 | 0.00 | 87 | 1010.7 |
| 20260510102601 | 71 | 230 | 2.0 | 4.0 | 0.00 | 0.03 | 0.00 | 87 | 1010.5 |
| 20260510102102 | 71 | 220 | 2.0 | 4.0 | 0.00 | 0.03 | 0.00 | 87 | 1010.5 |
| 20260510101602 | 71 | 201 | 2.0 | 5.0 | 0.00 | 0.03 | 0.00 | 87 | 1010.8 |
| 20260510101102 | 71 | 258 | 2.0 | 8.0 | 0.00 | 0.03 | 0.00 | 87 | 1010.5 |
| 20260510100601 | 71 | 237 | 3.0 | 8.0 | 0.00 | 0.03 | 0.00 | 87 | 1010.4 |
| 20260510100101 | 71 | 238 | 2.0 | 6.0 | 0.00 | 0.03 | 0.00 | 87 | 1010.2 |
| 20260510095838 | 71 | 203 | 2.0 | 7.0 | 0.00 | 0.03 | 0.00 | 87 | 1010.2 |
| 20260510095346 | 71 | 292 | 2.0 | 7.0 | 0.00 | 0.03 | 0.00 | 87 | 1010.1 |
| 20260510094608 | 71 | 171 | 2.0 | 4.0 | 0.00 | 0.03 | 0.00 | 87 | 1010.1 |
| 20260510094602 | 71 | 203 | 2.0 | 4.0 | 0.00 | 0.03 | 0.00 | 87 | 1010.1 |
| 20260510093602 | 71 | 250 | 2.0 | 4.0 | 0.00 | 0.03 | 0.00 | 87 | 1010.1 |
| 20260510093101 | 71 | 162 | 2.0 | 7.0 | 0.00 | 0.03 | 0.00 | 86 | 1010.2 |
| 20260510092602 | 71 | 304 | 2.0 | 7.0 | 0.00 | 0.03 | 0.00 | 86 | 1010.2 |
| 20260510092103 | 71 | 134 | 2.0 | 6.0 | 0.00 | 0.03 | 0.00 | 87 | 1010.2 |
| 20260510091602 | 71 | 313 | 2.0 | 4.0 | 0.00 | 0.03 | 0.00 | 87 | 1010.1 |
| 20260510091104 | 71 | 191 | 2.0 | 4.0 | 0.00 | 0.03 | 0.00 | 87 | 1010.1 |
| 20260510090834 | 71 | 259 | 2.0 | 4.0 | 0.00 | 0.03 | 0.00 | 87 | 1010.1 |
| 20260510085602 | 71 | 274 | 2.0 | 3.0 | 0.00 | 0.03 | 0.00 | 87 | 1010.1 |
| 20260510085103 | 71 | 294 | 2.0 | 4.0 | 0.00 | 0.03 | 0.00 | 87 | 1010.2 |
| 20260510084602 | 71 | 179 | 2.0 | 4.0 | 0.00 | 0.03 | 0.00 | 87 | 1010.2 |
| 20260510084102 | 71 | 281 | 2.0 | 5.0 | 0.00 | 0.03 | 0.00 | 87 | 1010.3 |
| 20260510083822 | 71 | 241 | 2.0 | 5.0 | 0.00 | 0.03 | 0.00 | 86 | 1010.3 |
| 20260510083322 | 71 | 299 | 2.0 | 4.0 | 0.00 | 0.03 | 0.00 | 86 | 1010.4 |
| 20260510083053 | 71 | 2 | 2.0 | 4.0 | 0.00 | 0.03 | 0.00 | 86 | 1010.4 |
| 20260510082058 | 71 | 192 | 2.0 | 4.0 | 0.00 | 0.03 | 0.00 | 86 | 1010.4 |
| 20260510081557 | 71 | 263 | 1.0 | 3.0 | 0.00 | 0.03 | 0.00 | 86 | 1010.4 |
| 20260510081326 | 71 | 158 | 2.0 | 5.0 | 0.00 | 0.03 | 0.00 | 86 | 1010.4 |
| 20260510080820 | 71 | 238 | 2.0 | 5.0 | 0.00 | 0.03 | 0.00 | 86 | 1010.4 |
| 20260510080043 | 71 | 274 | 2.0 | 5.0 | 0.00 | 0.03 | 0.00 | 86 | 1010.5 |
| 20260510075543 | 71 | 241 | 2.0 | 5.0 | 0.00 | 0.03 | 0.00 | 86 | 1010.5 |
| 20260510075043 | 71 | 257 | 2.0 | 3.0 | 0.00 | 0.03 | 0.00 | 86 | 1010.5 |
| 20260510074543 | 71 | 238 | 2.0 | 4.0 | 0.00 | 0.03 | 0.00 | 86 | 1010.7 |
| 20260510074043 | 71 | 104 | 2.0 | 5.0 | 0.00 | 0.03 | 0.00 | 85 | 1010.8 |
| 20260510073543 | 72 | 181 | 2.0 | 5.0 | 0.00 | 0.03 | 0.00 | 85 | 1010.7 |
| 20260510073043 | 72 | 157 | 1.0 | 5.0 | 0.00 | 0.03 | 0.00 | 84 | 1010.8 |
| 20260510072531 | 72 | 183 | 1.0 | 3.0 | 0.00 | 0.03 | 0.00 | 83 | 1010.7 |
| 20260510072029 | 72 | 106 | 2.0 | 4.0 | 0.00 | 0.03 | 0.00 | 83 | 1010.5 |
| 20260510071755 | 72 | 194 | 2.0 | 4.0 | 0.00 | 0.03 | 0.00 | 83 | 1010.5 |
| 20260510071028 | 72 | 227 | 2.0 | 4.0 | 0.00 | 0.03 | 0.00 | 83 | 1010.5 |
| 20260510070528 | 72 | 93 | 2.0 | 4.0 | 0.00 | 0.03 | 0.00 | 82 | 1010.7 |
| 20260510070029 | 73 | 183 | 2.0 | 7.0 | 0.00 | 0.03 | 0.00 | 82 | 1010.7 |
| 20260510065528 | 73 | 187 | 2.0 | 7.0 | 0.00 | 0.03 | 0.00 | 82 | 1010.5 |
| 20260510065028 | 73 | 299 | 2.0 | 4.0 | 0.00 | 0.03 | 0.00 | 82 | 1010.5 |
| 20260510064527 | 73 | 22 | 2.0 | 5.0 | 0.00 | 0.03 | 0.00 | 81 | 1010.5 |
| 20260510064029 | 73 | 60 | 2.0 | 5.0 | 0.00 | 0.03 | 0.00 | 80 | 1010.5 |
| 20260510063527 | 73 | 146 | 2.0 | 7.0 | 0.00 | 0.03 | 0.00 | 80 | 1010.5 |
| 20260510063025 | 73 | 312 | 2.0 | 7.0 | 0.00 | 0.03 | 0.00 | 79 | 1010.5 |
| 20260510062527 | 73 | 158 | 2.0 | 4.0 | 0.00 | 0.03 | 0.00 | 79 | 1010.5 |
| 20260510062027 | 73 | 142 | 2.0 | 4.0 | 0.00 | 0.03 | 0.00 | 78 | 1010.5 |
| 20260510061527 | 73 | 76 | 2.0 | 4.0 | 0.00 | 0.03 | 0.00 | 78 | 1010.5 |
| 20260510061253 | 74 | 118 | 2.0 | 4.0 | 0.00 | 0.03 | 0.00 | 77 | 1010.5 |
| 20260510060528 | 74 | 90 | 2.0 | 4.0 | 0.00 | 0.03 | 0.00 | 77 | 1010.5 |
| 20260510060014 | 74 | 101 | 2.0 | 4.0 | 0.00 | 0.03 | 0.00 | 77 | 1010.5 |
| 20260510055501 | 74 | 254 | 2.0 | 5.0 | 0.00 | 0.03 | 0.00 | 77 | 1010.4 |
| 20260510055001 | 74 | 136 | 2.0 | 5.0 | 0.00 | 0.03 | 0.00 | 77 | 1010.4 |
| 20260510054501 | 74 | 278 | 2.0 | 5.0 | 0.00 | 0.03 | 0.00 | 78 | 1010.4 |
| 20260510054001 | 73 | 113 | 2.0 | 5.0 | 0.00 | 0.03 | 0.00 | 79 | 1010.4 |
| 20260510053501 | 73 | 300 | 1.0 | 4.0 | 0.00 | 0.03 | 0.00 | 81 | 1010.4 |
| 20260510053000 | 73 | 122 | 1.0 | 4.0 | 0.00 | 0.03 | 0.00 | 82 | 1010.4 |
| 20260510052502 | 73 | 152 | 2.0 | 4.0 | 0.00 | 0.03 | 0.00 | 83 | 1010.4 |
| 20260510052002 | 73 | 155 | 1.0 | 3.0 | 0.00 | 0.03 | 0.00 | 85 | 1010.4 |
| 20260510051501 | 73 | 279 | 1.0 | 4.0 | 0.00 | 0.03 | 0.00 | 85 | 1010.4 |
| 20260510051224 | 73 | 147 | 1.0 | 4.0 | 0.00 | 0.03 | 0.00 | 86 | 1010.4 |
| 20260510050500 | 73 | 144 | 1.0 | 2.0 | 0.00 | 0.03 | 0.00 | 86 | 1010.5 |
| 20260510050001 | 74 | 89 | 1.0 | 2.0 | 0.00 | 0.03 | 0.00 | 86 | 1010.4 |
| 20260510045501 | 74 | 215 | 1.0 | 2.0 | 0.00 | 0.03 | 0.03 | 86 | 1010.4 |
| 20260510045002 | 74 | 285 | 0.0 | 2.0 | 0.00 | 0.03 | 0.03 | 86 | 1010.4 |
| 20260510044501 | 74 | 0 | 0.0 | 2.0 | 0.00 | 0.03 | 0.03 | 86 | 1010.4 |
| 20260510044000 | 74 | 92 | 0.0 | 2.0 | 0.00 | 0.03 | 0.03 | 86 | 1010.4 |
| 20260510043501 | 74 | 266 | 1.0 | 2.0 | 0.00 | 0.03 | 0.03 | 86 | 1010.5 |
| 20260510043001 | 74 | 4 | 1.0 | 2.0 | 0.00 | 0.03 | 0.03 | 86 | 1010.5 |
| 20260510042727 | 75 | 51 | 1.0 | 2.0 | 0.00 | 0.03 | 0.03 | 86 | 1010.4 |
| 20260510042001 | 75 | 295 | 1.0 | 2.0 | 0.00 | 0.03 | 0.03 | 85 | 1010.5 |
| 20260510041726 | 75 | 129 | 1.0 | 2.0 | 0.00 | 0.03 | 0.03 | 85 | 1010.4 |
| 20260510041223 | 75 | 137 | 1.0 | 2.0 | 0.00 | 0.03 | 0.03 | 85 | 1010.3 |
| 20260510040725 | 75 | 145 | 1.0 | 2.0 | 0.00 | 0.03 | 0.03 | 85 | 1010.3 |
| 20260510040000 | 76 | 174 | 1.0 | 3.0 | 0.00 | 0.03 | 0.03 | 85 | 1010.3 |
| 20260510035501 | 76 | 340 | 1.0 | 3.0 | 0.00 | 0.03 | 0.03 | 85 | 1010.3 |
| 20260510035001 | 76 | 324 | 1.0 | 2.0 | 0.00 | 0.03 | 0.03 | 85 | 1010.3 |
| 20260510034501 | 76 | 29 | 1.0 | 2.0 | 0.00 | 0.03 | 0.03 | 85 | 1010.2 |
| 20260510034001 | 76 | 72 | 0.0 | 2.0 | 0.00 | 0.03 | 0.03 | 85 | 1010.2 |
| 20260510033502 | 76 | 266 | 0.0 | 2.0 | 0.00 | 0.03 | 0.03 | 84 | 1010.1 |
| 20260510033003 | 76 | 307 | 0.0 | 2.0 | 0.00 | 0.03 | 0.03 | 84 | 1010.1 |
| 20260510032502 | 77 | 7 | 0.0 | 2.0 | 0.00 | 0.03 | 0.03 | 83 | 1010.1 |
| 20260510032002 | 77 | 198 | 1.0 | 2.0 | 0.00 | 0.03 | 0.03 | 83 | 1010.1 |
| 20260510031500 | 77 | 0 | 1.0 | 2.0 | 0.00 | 0.03 | 0.03 | 82 | 1010.0 |
| 20260510031001 | 77 | 312 | 1.0 | 2.0 | 0.00 | 0.03 | 0.03 | 82 | 1009.9 |
| 20260510030501 | 78 | 147 | 1.0 | 2.0 | 0.00 | 0.03 | 0.03 | 81 | 1009.8 |
| 20260510030012 | 78 | 0 | 1.0 | 2.0 | 0.00 | 0.03 | 0.03 | 80 | 1009.7 |
| 20260510030005 | 78 | 256 | 1.0 | 2.0 | 0.00 | 0.03 | 0.03 | 80 | 1009.7 |
| 20260510025002 | 78 | 158 | 1.0 | 2.0 | 0.00 | 0.03 | 0.03 | 80 | 1009.7 |
| 20260510024504 | 78 | 300 | 1.0 | 2.0 | 0.00 | 0.03 | 0.03 | 79 | 1009.6 |
| 20260510024005 | 79 | 120 | 1.0 | 2.0 | 0.00 | 0.03 | 0.03 | 78 | 1009.5 |
| 20260510023502 | 79 | 132 | 1.0 | 2.0 | 0.00 | 0.03 | 0.03 | 78 | 1009.4 |
| 20260510023002 | 79 | 81 | 1.0 | 2.0 | 0.00 | 0.03 | 0.03 | 77 | 1009.3 |
| 20260510022501 | 79 | 160 | 1.0 | 3.0 | 0.00 | 0.03 | 0.03 | 76 | 1009.2 |
| 20260510022002 | 80 | 310 | 2.0 | 3.0 | 0.00 | 0.03 | 0.03 | 75 | 1009.2 |
| 20260510021503 | 80 | 46 | 1.0 | 3.0 | 0.00 | 0.03 | 0.03 | 74 | 1009.1 |
| 20260510021002 | 80 | 129 | 1.0 | 3.0 | 0.00 | 0.03 | 0.03 | 73 | 1008.9 |
| 20260510020502 | 80 | 75 | 1.0 | 2.0 | 0.00 | 0.03 | 0.03 | 72 | 1008.9 |
| 20260510020001 | 80 | 313 | 0.0 | 2.0 | 0.00 | 0.03 | 0.03 | 71 | 1008.8 |
| 20260510015502 | 80 | 90 | 0.0 | 2.0 | 0.00 | 0.03 | 0.03 | 71 | 1008.7 |
| 20260510015002 | 80 | 0 | 0.0 | 2.0 | 0.00 | 0.03 | 0.03 | 70 | 1008.6 |
| 20260510014503 | 81 | 0 | 0.0 | 2.0 | 0.00 | 0.03 | 0.03 | 70 | 1008.6 |
| 20260510014002 | 81 | 92 | 1.0 | 2.0 | 0.00 | 0.03 | 0.03 | 69 | 1008.6 |
| 20260510013502 | 82 | 280 | 1.0 | 2.0 | 0.00 | 0.03 | 0.03 | 68 | 1008.6 |
| 20260510013002 | 82 | 102 | 0.0 | 2.0 | 0.00 | 0.03 | 0.03 | 67 | 1008.5 |
| 20260510012726 | 82 | 0 | 0.0 | 2.0 | 0.00 | 0.03 | 0.03 | 66 | 1008.5 |
| 20260510012002 | 83 | 0 | 1.0 | 3.0 | 0.00 | 0.03 | 0.03 | 66 | 1008.5 |
| 20260510011501 | 83 | 97 | 1.0 | 4.0 | 0.00 | 0.03 | 0.03 | 65 | 1008.4 |
| 20260510011001 | 83 | 57 | 1.0 | 4.0 | 0.00 | 0.03 | 0.03 | 65 | 1008.5 |
| 20260510010501 | 83 | 0 | 1.0 | 4.0 | 0.00 | 0.03 | 0.03 | 65 | 1008.4 |
| 20260510010001 | 84 | 20 | 1.0 | 4.0 | 0.00 | 0.03 | 0.03 | 66 | 1008.4 |
| 20260510005501 | 84 | 147 | 1.0 | 4.0 | 0.00 | 0.03 | 0.03 | 66 | 1008.4 |
| 20260510005001 | 84 | 341 | 1.0 | 4.0 | 0.00 | 0.03 | 0.03 | 66 | 1008.4 |
| 20260510004748 | 84 | 0 | 1.0 | 4.0 | 0.00 | 0.03 | 0.03 | 66 | 1008.3 |
| 20260510004001 | 85 | 94 | 1.0 | 4.0 | 0.00 | 0.03 | 0.03 | 65 | 1008.3 |
| 20260510003501 | 85 | 0 | 1.0 | 4.0 | 0.00 | 0.03 | 0.03 | 65 | 1008.2 |
| 20260510003001 | 85 | 100 | 1.0 | 5.0 | 0.00 | 0.03 | 0.03 | 64 | 1008.2 |
| 20260510002501 | 85 | 29 | 1.0 | 5.0 | 0.00 | 0.03 | 0.03 | 64 | 1008.2 |
| 20260510002001 | 86 | 112 | 2.0 | 6.0 | 0.00 | 0.03 | 0.03 | 63 | 1008.1 |
| 20260510001751 | 86 | 84 | 2.0 | 6.0 | 0.00 | 0.03 | 0.03 | 63 | 1008.1 |
| 20260510001001 | 87 | 60 | 1.0 | 5.0 | 0.00 | 0.03 | 0.03 | 62 | 1008.0 |
| 20260510000500 | 87 | 150 | 1.0 | 6.0 | 0.00 | 0.03 | 0.03 | 60 | 1008.0 |
| 20260510000001 | 88 | 182 | 1.0 | 6.0 | 0.00 | 0.03 | 0.03 | 59 | 1008.0 |
| 20260509235501 | 88 | 179 | 1.0 | 6.0 | 0.00 | 0.03 | 0.03 | 59 | 1007.9 |
| 20260509235001 | 88 | 108 | 1.0 | 5.0 | 0.00 | 0.03 | 0.03 | 58 | 1007.8 |
| 20260509234501 | 88 | 0 | 1.0 | 5.0 | 0.00 | 0.03 | 0.03 | 58 | 1007.8 |
| 20260509234001 | 88 | 0 | 1.0 | 4.0 | 0.00 | 0.03 | 0.03 | 57 | 1007.8 |
| 20260509233501 | 89 | 16 | 1.0 | 6.0 | 0.00 | 0.03 | 0.03 | 58 | 1007.7 |
| 20260509233249 | 89 | 252 | 1.0 | 6.0 | 0.00 | 0.03 | 0.03 | 56 | 1007.7 |
| 20260509232749 | 88 | 22 | 2.0 | 5.0 | 0.00 | 0.03 | 0.03 | 58 | 1007.7 |
| 20260509232001 | 88 | 66 | 2.0 | 5.0 | 0.00 | 0.03 | 0.03 | 58 | 1007.7 |
| 20260509231502 | 88 | 167 | 2.0 | 5.0 | 0.00 | 0.03 | 0.03 | 58 | 1007.6 |
| 20260509231002 | 88 | 176 | 2.0 | 5.0 | 0.00 | 0.03 | 0.03 | 59 | 1007.7 |
| 20260509230747 | 89 | 140 | 2.0 | 6.0 | 0.00 | 0.03 | 0.03 | 59 | 1007.7 |
| 20260509230002 | 89 | 138 | 2.0 | 6.0 | 0.00 | 0.03 | 0.03 | 58 | 1007.7 |
| 20260509225502 | 89 | 219 | 2.0 | 6.0 | 0.00 | 0.03 | 0.03 | 59 | 1007.7 |
| 20260509225002 | 89 | 147 | 2.0 | 6.0 | 0.00 | 0.03 | 0.03 | 58 | 1007.7 |
| 20260509224501 | 89 | 153 | 2.0 | 6.0 | 0.00 | 0.03 | 0.03 | 59 | 1007.8 |
| 20260509224002 | 89 | 314 | 2.0 | 6.0 | 0.00 | 0.03 | 0.03 | 59 | 1007.7 |
| 20260509223502 | 88 | 142 | 2.0 | 5.0 | 0.00 | 0.03 | 0.03 | 59 | 1007.7 |
| 20260509223002 | 88 | 76 | 2.0 | 5.0 | 0.00 | 0.03 | 0.03 | 59 | 1007.6 |
| 20260509222502 | 88 | 213 | 2.0 | 5.0 | 0.00 | 0.03 | 0.03 | 60 | 1007.7 |
| 20260509222002 | 88 | 81 | 2.0 | 5.0 | 0.00 | 0.03 | 0.03 | 59 | 1007.7 |
| 20260509221502 | 89 | 17 | 2.0 | 7.0 | 0.00 | 0.03 | 0.03 | 60 | 1007.6 |
| 20260509221038 | 89 | 91 | 2.0 | 6.0 | 0.00 | 0.03 | 0.03 | 57 | 1007.7 |
| 20260509221027 | 89 | 104 | 2.0 | 7.0 | 0.00 | 0.03 | 0.03 | 58 | 1007.6 |
| 20260509220001 | 89 | 349 | 2.0 | 6.0 | 0.00 | 0.03 | 0.03 | 54 | 1007.6 |
| 20260509215745 | 89 | 0 | 2.0 | 6.0 | 0.00 | 0.03 | 0.03 | 54 | 1007.7 |
| 20260509215002 | 89 | 83 | 2.0 | 5.0 | 0.00 | 0.03 | 0.03 | 54 | 1007.7 |
| 20260509214748 | 89 | 105 | 2.0 | 5.0 | 0.00 | 0.03 | 0.03 | 56 | 1007.7 |
| 20260509214002 | 89 | 31 | 1.0 | 5.0 | 0.00 | 0.03 | 0.03 | 55 | 1007.7 |
| 20260509213502 | 89 | 0 | 1.0 | 5.0 | 0.00 | 0.03 | 0.03 | 56 | 1007.9 |
| 20260509213000 | 90 | 17 | 1.0 | 4.0 | 0.00 | 0.03 | 0.03 | 55 | 1007.9 |
| 20260509212500 | 90 | 46 | 1.0 | 4.0 | 0.00 | 0.03 | 0.03 | 54 | 1007.9 |
| 20260509212003 | 89 | 212 | 1.0 | 4.0 | 0.00 | 0.03 | 0.03 | 56 | 1008.0 |
| 20260509211502 | 88 | 201 | 1.0 | 4.0 | 0.00 | 0.03 | 0.03 | 56 | 1008.1 |
| 20260509211002 | 88 | 37 | 2.0 | 6.0 | 0.00 | 0.03 | 0.03 | 56 | 1008.2 |
| 20260509210502 | 88 | 28 | 2.0 | 6.0 | 0.00 | 0.03 | 0.03 | 57 | 1008.3 |
| 20260509210246 | 88 | 156 | 1.0 | 4.0 | 0.00 | 0.03 | 0.03 | 56 | 1008.3 |
| 20260509205500 | 87 | 320 | 1.0 | 5.0 | 0.00 | 0.03 | 0.03 | 58 | 1008.4 |
| 20260509205002 | 87 | 50 | 1.0 | 6.0 | 0.00 | 0.03 | 0.03 | 57 | 1008.5 |
| 20260509204502 | 87 | 37 | 1.0 | 6.0 | 0.00 | 0.03 | 0.03 | 56 | 1008.6 |
| 20260509204001 | 87 | 164 | 1.0 | 4.0 | 0.00 | 0.03 | 0.03 | 55 | 1008.7 |
| 20260509203501 | 87 | 114 | 2.0 | 5.0 | 0.00 | 0.03 | 0.03 | 56 | 1008.7 |
| 20260509203004 | 86 | 149 | 2.0 | 5.0 | 0.00 | 0.03 | 0.03 | 56 | 1008.7 |
| 20260509202502 | 86 | 0 | 2.0 | 4.0 | 0.00 | 0.03 | 0.03 | 56 | 1008.8 |
| 20260509202002 | 85 | 81 | 2.0 | 5.0 | 0.00 | 0.03 | 0.03 | 58 | 1009.0 |
| 20260509201502 | 84 | 284 | 2.0 | 9.0 | 0.00 | 0.03 | 0.03 | 59 | 1009.1 |
| 20260509201243 | 84 | 152 | 2.0 | 9.0 | 0.00 | 0.03 | 0.03 | 57 | 1009.3 |
| 20260509200501 | 83 | 162 | 2.0 | 8.0 | 0.00 | 0.03 | 0.03 | 58 | 1009.4 |
| 20260509200001 | 84 | 310 | 3.0 | 9.0 | 0.00 | 0.03 | 0.03 | 58 | 1009.6 |
| 20260509195501 | 86 | 226 | 2.0 | 9.0 | 0.00 | 0.03 | 0.03 | 54 | 1009.8 |
| 20260509195000 | 87 | 214 | 2.0 | 5.0 | 0.00 | 0.03 | 0.03 | 60 | 1009.8 |
| 20260509194501 | 87 | 87 | 2.0 | 5.0 | 0.00 | 0.03 | 0.03 | 60 | 1009.7 |
| 20260509194001 | 87 | 53 | 2.0 | 5.0 | 0.00 | 0.03 | 0.03 | 60 | 1009.5 |
| 20260509193500 | 88 | 51 | 2.0 | 5.0 | 0.00 | 0.03 | 0.03 | 62 | 1009.5 |
| 20260509193002 | 88 | 0 | 2.0 | 6.0 | 0.00 | 0.03 | 0.03 | 60 | 1009.5 |
| 20260509192501 | 88 | 65 | 2.0 | 6.0 | 0.00 | 0.03 | 0.03 | 61 | 1009.4 |
| 20260509192002 | 87 | 73 | 2.0 | 5.0 | 0.00 | 0.03 | 0.03 | 61 | 1009.3 |
| 20260509191744 | 87 | 325 | 2.0 | 5.0 | 0.00 | 0.03 | 0.03 | 63 | 1009.3 |
| 20260509191001 | 87 | 131 | 2.0 | 8.0 | 0.00 | 0.03 | 0.03 | 64 | 1009.3 |
| 20260509190741 | 86 | 192 | 2.0 | 8.0 | 0.00 | 0.03 | 0.03 | 65 | 1009.3 |
| 20260509190242 | 86 | 23 | 2.0 | 6.0 | 0.00 | 0.03 | 0.03 | 67 | 1009.4 |
| 20260509185501 | 86 | 66 | 2.0 | 7.0 | 0.00 | 0.03 | 0.03 | 65 | 1009.5 |
| 20260509185001 | 86 | 72 | 2.0 | 7.0 | 0.00 | 0.03 | 0.03 | 67 | 1009.7 |
| 20260509184501 | 86 | 43 | 2.0 | 7.0 | 0.00 | 0.03 | 0.03 | 67 | 1009.7 |
| 20260509184002 | 86 | 259 | 2.0 | 6.0 | 0.00 | 0.03 | 0.03 | 68 | 1009.8 |
| 20260509183502 | 86 | 359 | 2.0 | 8.0 | 0.00 | 0.03 | 0.03 | 68 | 1009.8 |
| 20260509183241 | 86 | 245 | 2.0 | 8.0 | 0.00 | 0.03 | 0.03 | 68 | 1009.9 |
| 20260509182501 | 87 | 29 | 2.0 | 8.0 | 0.00 | 0.03 | 0.03 | 67 | 1009.9 |
| 20260509182001 | 88 | 26 | 1.0 | 5.0 | 0.00 | 0.03 | 0.03 | 64 | 1010.0 |
| 20260509181503 | 88 | 248 | 1.0 | 4.0 | 0.00 | 0.03 | 0.03 | 66 | 1010.1 |
| 20260509181000 | 87 | 0 | 1.0 | 4.0 | 0.00 | 0.03 | 0.03 | 67 | 1010.1 |
| 20260509180501 | 86 | 201 | 2.0 | 6.0 | 0.00 | 0.03 | 0.03 | 67 | 1010.2 |
| 20260509180002 | 86 | 230 | 2.0 | 6.0 | 0.00 | 0.03 | 0.03 | 68 | 1010.1 |
| 20260509175501 | 86 | 259 | 1.0 | 5.0 | 0.00 | 0.03 | 0.03 | 69 | 1010.2 |
| 20260509175002 | 86 | 299 | 1.0 | 4.0 | 0.00 | 0.03 | 0.03 | 71 | 1010.3 |
| 20260509174742 | 85 | 98 | 2.0 | 4.0 | 0.00 | 0.03 | 0.03 | 70 | 1010.3 |